Погода в Мартан-Чу

Россия / Чеченская Республика     43°03′38″N   45°33′23″E
темп.,
°C
ветер,
м/с
пор.,
м/с
влажн.,
%
обл.,
%
осадки,
мм/ч
давл.,
гПа
погр.,
м
15 мая, сб
сб1500:00+17ююз33500 0.0 101342
03:00+16ююз43510 0.0 101351
06:00+17ююз33570 0.0 101360
09:00+24ссв21391 0.0 1013636
12:00+26ссв32385 0.0 10131150
15:00+26ссв32405 0.1 10121501
18:00+22зюз1162100 0.3 101317
21:00+17ююз3460100 0.4 101450
16 мая, вс
вс1600:00+17ююз335599 0.0 101339
03:00+16ююз336096 0.0 101244
06:00+17ююз33594 0.0 101164
09:00+24ссв22381 0.0 1010848
12:00+26ссв33404 0.0 10081193
15:00+27ссв33415 0.0 10071189
18:00+24ссв00590 0.0 100617
21:00+18ююз45408 0.0 100876
17 мая, пн
пн1700:00+17ююз45349 0.0 100783
03:00+16ююз45385 0.0 100769
06:00+18ююз334651 0.0 100763
09:00+26ссв223194 0.0 1006664
12:00+28ссв33280 0.0 10061077
15:00+29ссв33290 0.0 10051447
18:00+24с115551 0.0 100629
21:00+18юз236225 0.0 101056
18 мая, вт
вт1800:00+18ююз2355100 0.1 100945
03:00+16ю116098 0.1 100911
06:00+17зюз016522 0.0 101193
09:00+20сз446584 0.0 10111122
12:00+18ссз468188 1.1 1012868
15:00+14сз2798100 14.1 1015478
18:00+14ю1299100 21.8 1015135
21:00+14ю229173 25.7 101628
19 мая, ср
ср1900:00+13ююз328896 0.0 101732
03:00+12ююз2285100 0.0 101726
06:00+14ююз12817 0.0 101949
09:00+20ссв22540 0.0 1017989
12:00+22ссв32473 0.0 10151349
15:00+23св32465 0.0 10141378
18:00+20всв12640 0.0 1014120
21:00+16ююз32740 0.0 101535